524  
ASUS43 KOAX 071310  
RWRNE  
 
WEATHER ROUNDUP FOR NEBRASKA  
NATIONAL WEATHER SERVICE OMAHA NE  
800 AM CDT THU JUL 07 2022  
 
NOTES: SATELLITE DATA IS BEING USED TO AUGMENT CLOUD COVER ABOVE  
12000 FEET.  
"FAIR" INDICATES FEW OR NO CLOUDS BELOW 12,000 FEET WITH NO  
SIGNIFICANT WEATHER AND/OR S TO VISIBILITY
.  
 
 
NEZ001>004-019>022-054>056-071400-  
NEBRASKA PANHANDLE  
 
CITY SKY/WX TMP DP RH WIND PRES REMARKS
 
SCOTTSBLUFF SUNNY 67 61 81 NE3 30.06R  
ALLIANCE SUNNY 64 62 93 W3 30.07R  
CHADRON SUNNY 64 59 83 CALM 30.04R  
GORDON PTSUNNY 66 64 93 CALM 30.04S  
KIMBALL SUNNY 60 57 91 W5 30.12R FOG  
SIDNEY SUNNY 65 62 90 W5 30.08R FOG  

 
 
NEZ057>060-069>072-079>082-071400-  
SOUTHWEST NEBRASKA  
 
CITY SKY/WX TMP DP RH WIND PRES REMARKS
 
NORTH PLATTE CLOUDY 72 70 93 E6 29.99F FOG  
IMPERIAL SUNNY 69 67 93 NW9 30.02R  
LEXINGTON HVY RAIN 73 71 96 CALM 29.97S  
MCCOOK PTSUNNY 71 67 87 W5 29.96S  
OGALLALA CLOUDY 70 70 100 CALM 30.03R FOG  

 
 
NEZ005>010-023>029-035>040-094-071400-  
NORTH CENTRAL NEBRASKA  
 
CITY SKY/WX TMP DP RH WIND PRES REMARKS
 
VALENTINE PTSUNNY 70 67 90 NE6 30.00S  
AINSWORTH PTSUNNY 71 68 92 E3 30.01S FOG  
BROKEN BOW CLOUDY 73 71 93 E5 29.97S  
O'NEILL RAIN 71 69 94 SE7 30.00S  
ORD FOG 72 72 100 E9 29.94F VSB 1  
THEDFORD PTSUNNY 68 67 98 CALM 30.02S FOG  

 
 
NEZ041-046>049-061>064-073>077-083>087-071400-  
SOUTH CENTRAL NEBRASKA  
 
CITY SKY/WX TMP DP RH WIND PRES REMARKS
 
GRAND ISLAND SUNNY 72 70 94 NE6 29.94F  
AURORA PTSUNNY 72 71 96 E7 29.93F FOG  
HASTINGS PTSUNNY 71 69 93 NE6 29.93F  
HEBRON PTSUNNY 73 71 93 SE8 29.90F  
HOLDREGE PTSUNNY 70 68 94 NE5 29.96R  
KEARNEY CLOUDY 71 69 93 E3 29.97R  
YORK PTSUNNY 70 70 100 E8 29.93S  

 
 
NEZ011>018-030>034-042>045-071400-  
NORTHEAST NEBRASKA  
 
CITY SKY/WX TMP DP RH WIND PRES REMARKS
 
NORFOLK CLOUDY 73 70 90 E6 29.97F FOG  
ALBION FOG 72 71 99 E5 29.96F VSB 1  
BLAIR RAIN 71 71 99 E7 29.96F  
COLUMBUS CLOUDY 71 71 100 MISG 29.95F FOG  
FREMONT CLOUDY 73 72 94 E5 29.95F FOG  
TEKAMAH CLOUDY 73 71 93 SE3 29.96R  
WAYNE CLOUDY 73 71 94 SE3 29.98S  

 
 
NEZ050>053-065>068-078-088>093-071400-  
SOUTHEAST NEBRASKA  
 
CITY SKY/WX TMP DP RH WIND PRES REMARKS
 
LINCOLN LGT RAIN 73 70 90 E5 29.93F  
OMAHA EPPLEY LGT RAIN 72 72 100 E5 29.96S FOG  
BEATRICE LGT RAIN 72 70 93 SE5 29.93R  
FALLS CITY CLOUDY 71 71 100 S5 29.96R  
NEBRASKA CITY RAIN 70 69 98 E7 29.96F  
PLATTSMOUTH LGT RAIN 70 69 96 E9 29.96S  

 
 
NEZ044-045-051>053-067-071400-  
OMAHA AREA  
 
CITY SKY/WX TMP DP RH WIND PRES REMARKS
 
OMAHA EPPLEY LGT RAIN 72 72 100 E5 29.96S FOG  
BLAIR RAIN 71 71 99 E7 29.96F  
FREMONT CLOUDY 73 72 94 E5 29.95F FOG  
MILLARD CLOUDY 72 68 89 SE3 29.95F  
OFFUTT AFB CLOUDY 71 69 93 E3 29.98R  
PLATTSMOUTH LGT RAIN 70 69 96 E9 29.96S  
WAHOO CLOUDY 71 71 100 E3 29.95S  

 
 
 
CLICK HERE TO GO TO PREVIOUS BULLETINS.

The Nexlab NE Page Main Text Page